Robinson, IL

12:14 AM CDT on September 22, 2017 (GMT -0500)
Robinson Municipal

Weather History for KRSV - May, 2014

Change the Weather History Date:

Saturday, May 17, 2014

  Actual Average (KLWV) Record (KLWV)
Temperature  
Mean Temperature 49 °F -  
Max Temperature 60 °F 74 °F 86 °F (1992)
Min Temperature 38 °F 53 °F 39 °F (2014)
Degree Days  
Heating Degree Days 16    
Moisture  
Dew Point 41 °F    
Average Humidity 73    
Maximum Humidity 100    
Minimum Humidity 42    
Precipitation  
Precipitation 0.00 in - - ()
Sea Level Pressure  
Sea Level Pressure 30.20 in    
Wind  
Wind Speed 4 mph (WNW)    
Max Wind Speed 8 mph    
Max Gust Speed -    
Visibility 9 miles    
Events      
Averages and records for this station are not official NWS values.
T = Trace of Precipitation, MM = Missing Value Source: NWS Daily Summary

Daily Weather History Graph

Daily Weather History Graph

Search for Another Location

Airport or City:

Trip Planner

Search our weather history database for the weather conditions in past years. The results will help you decide how hot, cold, wet, or windy it might be!

Date:

Astronomy

May. 17, 2014 Rise Set
Actual Time 5:36 AM CDT 7:58 PM CDT
Civil Twilight 5:05 AM CDT 8:28 PM CDT
Nautical Twilight 4:28 AM CDT 9:06 PM CDT
Astronomical Twilight 3:47 AM CDT 9:47 PM CDT
Moon 10:59 PM CDT (5/17) 8:18 AM CDT (5/17)
Length of Visible Light 15h 22m
Length of Day
14h 22m
Waning Gibbous, 89% of the Moon is Illuminated
May 17
Waning Gibbous
May 21
Last Quarter
May 28
New
Jun 5
First Quarter
Jun 12
Full

Hourly Weather History & Observations

Time (CDT) Temp. Windchill Dew Point Humidity Pressure Visibility Wind Dir Wind Speed Gust Speed Precip Events Conditions
12:15 AM 45.5 °F 42.5 °F 41.9 °F 87% 30.13 in 10.0 mi NW 5.8 mph - N/A   Scattered Clouds
12:35 AM 45.0 °F 41.8 °F 42.1 °F 90% 30.14 in 10.0 mi NW 5.8 mph - N/A   Clear
12:55 AM 44.4 °F 42.0 °F 41.9 °F 91% 30.14 in 10.0 mi NW 4.6 mph - N/A   Clear
1:15 AM 43.9 °F 41.3 °F 41.9 °F 93% 30.14 in 10.0 mi NNW 4.6 mph - N/A   Clear
1:35 AM 43.7 °F 41.1 °F 41.5 °F 92% 30.14 in 10.0 mi NW 4.6 mph - N/A   Scattered Clouds
1:55 AM 43.7 °F 41.1 °F 41.4 °F 91% 30.14 in 10.0 mi NW 4.6 mph - N/A   Clear
2:15 AM 43.2 °F - 41.4 °F 93% 30.14 in 10.0 mi Calm Calm - N/A   Clear
2:35 AM 42.8 °F 41.1 °F 41.0 °F 93% 30.14 in 10.0 mi NW 3.5 mph - N/A   Clear
2:55 AM 42.3 °F - 41.0 °F 95% 30.14 in 10.0 mi Calm Calm - N/A   Clear
3:15 AM 41.0 °F - 40.1 °F 97% 30.14 in 7.0 mi Calm Calm - N/A   Clear
3:35 AM 40.6 °F 37.5 °F 40.1 °F 98% 30.15 in 5.0 mi West 4.6 mph - N/A   Clear
3:55 AM 40.5 °F 37.3 °F 40.1 °F 99% 30.15 in 5.0 mi West 4.6 mph - N/A   Clear
4:15 AM 40.5 °F 38.4 °F 40.1 °F 99% 30.15 in 5.0 mi West 3.5 mph - N/A   Clear
4:35 AM 39.9 °F 37.8 °F 39.6 °F 99% 30.15 in 4.0 mi West 3.5 mph - N/A   Clear
4:55 AM 40.1 °F 38.0 °F 39.7 °F 99% 30.15 in 5.0 mi WNW 3.5 mph - N/A   Clear
5:15 AM 39.7 °F 36.5 °F 39.6 °F 99% 30.16 in 4.0 mi WNW 4.6 mph - N/A   Clear
5:35 AM 38.5 °F 36.1 °F 38.3 °F 99% 30.16 in 2.5 mi West 3.5 mph - N/A   Clear
5:55 AM 39.0 °F - 38.8 °F 99% 30.16 in 2.0 mi Calm Calm - N/A   Clear
6:15 AM 39.2 °F - 39.2 °F 100% 30.17 in 1.8 mi Calm Calm - N/A   Mist
6:35 AM 40.5 °F 38.4 °F 40.5 °F 100% 30.18 in 2.5 mi SW 3.5 mph - N/A   Clear
6:55 AM 42.8 °F - 42.8 °F 100% 30.19 in 4.0 mi Calm Calm - N/A   Clear
7:15 AM 44.2 °F - 44.1 °F 99% 30.19 in 7.0 mi Calm Calm - N/A   Clear
7:35 AM 45.7 °F - 43.7 °F 93% 30.20 in 10.0 mi Calm Calm - N/A   Clear
7:55 AM 46.8 °F - 43.0 °F 87% 30.20 in 10.0 mi Calm Calm - N/A   Clear
8:15 AM 48.2 °F - 42.1 °F 79% 30.21 in 10.0 mi Calm Calm - N/A   Clear
8:35 AM 49.3 °F - 41.9 °F 76% 30.21 in 10.0 mi Calm Calm - N/A   Clear
8:55 AM 49.5 °F - 41.5 °F 74% 30.21 in 10.0 mi West 3.5 mph - N/A   Clear
9:15 AM 50.5 °F - 41.4 °F 71% 30.22 in 10.0 mi WNW 3.5 mph - N/A   Clear
9:35 AM 51.6 °F - 42.1 °F 70% 30.22 in 10.0 mi Calm Calm - N/A   Clear
9:55 AM 52.7 °F - 42.4 °F 68% 30.22 in 10.0 mi NNW 6.9 mph - N/A   Clear
10:15 AM 53.8 °F - 42.8 °F 66% 30.22 in 10.0 mi NW 5.8 mph - N/A   Clear
10:35 AM 54.1 °F - 42.1 °F 64% 30.22 in 10.0 mi NW 5.8 mph - N/A   Scattered Clouds
10:55 AM 53.6 °F - 41.7 °F 64% 30.22 in 10.0 mi NW 5.8 mph - N/A   Mostly Cloudy
11:15 AM 54.7 °F - 40.8 °F 60% 30.22 in 10.0 mi WNW 5.8 mph - N/A   Mostly Cloudy
11:35 AM 55.8 °F - 41.5 °F 59% 30.22 in 10.0 mi Calm Calm - N/A   Scattered Clouds
11:55 AM 55.9 °F - 40.5 °F 56% 30.22 in 10.0 mi SW 4.6 mph - N/A   Scattered Clouds
12:15 PM 55.4 °F - 38.3 °F 53% 30.22 in 10.0 mi WNW 5.8 mph - N/A   Mostly Cloudy
12:35 PM 56.1 °F - 41.0 °F 57% 30.22 in 10.0 mi West 8.1 mph - N/A   Overcast
12:55 PM 57.2 °F - 39.2 °F 51% 30.22 in 10.0 mi West 3.5 mph - N/A   Mostly Cloudy
1:15 PM 56.3 °F - 39.6 °F 53% 30.22 in 10.0 mi WNW 6.9 mph - N/A   Mostly Cloudy
1:35 PM 56.8 °F - 40.6 °F 55% 30.22 in 10.0 mi NW 5.8 mph - N/A   Overcast
1:55 PM 57.6 °F - 39.6 °F 51% 30.22 in 10.0 mi WNW 8.1 mph - N/A   Mostly Cloudy
2:15 PM 59.0 °F - 40.8 °F 51% 30.22 in 10.0 mi West 8.1 mph - N/A   Mostly Cloudy
2:35 PM 57.9 °F - 40.5 °F 52% 30.22 in 10.0 mi WNW 6.9 mph - N/A   Overcast
2:55 PM 59.4 °F - 41.9 °F 52% 30.22 in 10.0 mi West 6.9 mph - N/A   Scattered Clouds
3:15 PM 59.5 °F - 39.6 °F 48% 30.21 in 10.0 mi WNW 4.6 mph - N/A   Scattered Clouds
3:35 PM 59.9 °F - 39.4 °F 47% 30.21 in 10.0 mi West 5.8 mph - N/A   Mostly Cloudy
3:55 PM 58.8 °F - 39.2 °F 48% 30.20 in 10.0 mi West 8.1 mph - N/A   Mostly Cloudy
4:15 PM 59.9 °F - 39.9 °F 48% 30.20 in 10.0 mi West 6.9 mph - N/A   Mostly Cloudy
4:35 PM 58.5 °F - 39.7 °F 50% 30.20 in 10.0 mi West 4.6 mph - N/A   Overcast
4:55 PM 58.3 °F - 38.8 °F 48% 30.20 in 10.0 mi NW 3.5 mph - N/A   Overcast
5:15 PM 58.8 °F - 38.8 °F 47% 30.20 in 10.0 mi Calm Calm - N/A   Overcast
5:35 PM 58.6 °F - 39.9 °F 50% 30.20 in 10.0 mi Calm Calm - N/A   Scattered Clouds
5:55 PM 60.1 °F - 37.0 °F 42% 30.20 in 10.0 mi Calm Calm - N/A   Mostly Cloudy
6:15 PM 60.3 °F - 37.2 °F 42% 30.20 in 10.0 mi NW 4.6 mph - N/A   Mostly Cloudy
6:35 PM 59.7 °F - 37.8 °F 44% 30.20 in 10.0 mi WNW 6.9 mph - N/A   Scattered Clouds
6:55 PM 59.2 °F - 37.8 °F 45% 30.21 in 10.0 mi WNW 5.8 mph - N/A   Mostly Cloudy
7:15 PM 58.6 °F - 37.8 °F 46% 30.21 in 10.0 mi West 4.6 mph - N/A   Mostly Cloudy
7:35 PM 55.8 °F - 42.8 °F 62% 30.22 in 10.0 mi Calm Calm - N/A   Scattered Clouds
7:55 PM 55.4 °F - 42.6 °F 62% 30.22 in 10.0 mi Calm Calm - N/A   Scattered Clouds
8:15 PM 55.4 °F - 39.7 °F 56% 30.22 in 10.0 mi NNE 3.5 mph - N/A   Overcast
8:35 PM 52.7 °F - 43.3 °F 70% 30.23 in 10.0 mi Calm Calm - N/A   Scattered Clouds
8:55 PM 51.1 °F - 44.4 °F 78% 30.24 in 10.0 mi Calm Calm - N/A   Clear
9:15 PM 49.6 °F - 45.7 °F 86% 30.24 in 10.0 mi Calm Calm - N/A   Clear
9:35 PM 48.6 °F - 45.1 °F 88% 30.24 in 10.0 mi Calm Calm - N/A   Clear
9:55 PM 47.7 °F - 43.7 °F 86% 30.25 in 10.0 mi Calm Calm - N/A   Clear
10:15 PM 46.9 °F - 44.1 °F 90% 30.25 in 10.0 mi Calm Calm - N/A   Clear
11:15 PM 45.7 °F - 44.4 °F 95% 30.26 in 10.0 mi Calm Calm - N/A   Clear
11:35 PM 44.2 °F - 43.2 °F 96% 30.26 in 10.0 mi Calm Calm - N/A   Clear
11:55 PM 43.7 °F - 42.6 °F 96% 30.27 in 10.0 mi Calm Calm - N/A   Clear